Petersburg, AK

8:25 PM AKDT on April 25, 2018 (GMT -0800)
Johnson Petersburg

Weather History for PAPG - August, 2014

Change the Weather History Date:

Saturday, August 9, 2014

  Actual Average Record
Temperature  
Mean Temperature 56 °F -  
Max Temperature 59 °F 60 °F 77 °F (1993)
Min Temperature 53 °F 48 °F 40 °F (1992)
Degree Days  
Heating Degree Days 9    
Growing Degree Days 6 (Base 50)    
Moisture  
Dew Point 52 °F    
Average Humidity 84    
Maximum Humidity 94    
Minimum Humidity 77    
Precipitation  
Precipitation 0.58 in - - ()
Sea Level Pressure  
Sea Level Pressure 29.98 in    
Wind  
Wind Speed 5 mph (SE)    
Max Wind Speed 15 mph    
Max Gust Speed 25 mph    
Visibility 8 miles    
Events Rain    
Averages and records for this station are not official NWS values.
T = Trace of Precipitation, MM = Missing Value Source: NWS Daily Summary

Daily Weather History Graph

Daily Weather History Graph

Search for Another Location

Airport or City:

Astronomy

Aug. 09, 2014 Rise Set
Actual Time 5:07 AM AKDT 8:45 PM AKDT
Civil Twilight 4:21 AM AKDT 9:31 PM AKDT
Nautical Twilight 3:14 AM AKDT 10:37 PM AKDT
Astronomical Twilight 1:29 AM AKDT 12:24 AM AKDT
Moon 7:44 PM AKDT (8/9) 3:57 AM AKDT (8/9)
Length of Visible Light 17h 10m
Length of Day
15h 37m
Waxing Gibbous, 99% of the Moon is Illuminated
Aug 9
Waxing Gibbous
Aug 10
Full
Aug 17
Last Quarter
Aug 25
New
Sep 2
First Quarter

Hourly Weather History & Observations

Time (AKDT) Temp. Dew Point Humidity Pressure Visibility Wind Dir Wind Speed Gust Speed Precip Events Conditions
12:16 AM 53.6 °F 51.8 °F 94% 30.05 in 10.0 mi Calm Calm - 0.01 in   Overcast
12:36 AM 53.6 °F 51.8 °F 94% 30.05 in 10.0 mi Calm Calm - 0.01 in   Overcast
12:56 AM 53.6 °F 51.8 °F 94% 30.05 in 10.0 mi SW 3.5 mph - 0.01 in   Mostly Cloudy
1:16 AM 53.6 °F 51.8 °F 94% 30.05 in 10.0 mi West 3.5 mph - N/A   Mostly Cloudy
1:36 AM 55.4 °F 51.8 °F 88% 30.04 in 10.0 mi NE 3.5 mph - N/A   Mostly Cloudy
1:56 AM 55.4 °F 51.8 °F 88% 30.04 in 10.0 mi Calm Calm - 0.01 in   Overcast
2:16 AM 55.4 °F 51.8 °F 88% 30.04 in 10.0 mi Calm Calm - 0.01 in   Overcast
2:36 AM 55.4 °F 51.8 °F 88% 30.04 in 10.0 mi West 3.5 mph - 0.02 in   Overcast
2:56 AM 55.4 °F 51.8 °F 88% 30.03 in 10.0 mi West 3.5 mph - 0.02 in   Overcast
3:36 AM 55.4 °F 50.0 °F 82% 30.03 in 10.0 mi ESE 8.1 mph - N/A   Overcast
3:56 AM 55.4 °F 51.8 °F 88% 30.02 in 10.0 mi SE 5.8 mph - N/A   Overcast
4:16 AM 55.4 °F 50.0 °F 82% 30.02 in 10.0 mi SSE 11.5 mph 17.3 mph N/A   Overcast
4:56 AM 55.4 °F 50.0 °F 82% 30.01 in 10.0 mi Calm Calm - N/A   Overcast
5:56 AM 55.4 °F 51.8 °F 88% 30.00 in 10.0 mi SSW 5.8 mph - 0.01 in   Mostly Cloudy
6:36 AM 57.2 °F 51.8 °F 82% 30.00 in 9.0 mi ESE 5.8 mph - N/A   Mostly Cloudy
6:56 AM 57.2 °F 50.0 °F 77% 29.99 in 7.0 mi ESE 11.5 mph 16.1 mph 0.01 in   Overcast
7:16 AM 57.2 °F 50.0 °F 77% 29.99 in 7.0 mi SSE 10.4 mph 16.1 mph N/A   Overcast
7:36 AM 55.4 °F 51.8 °F 88% 29.99 in 7.0 mi ESE 8.1 mph - 0.01 in   Overcast
7:56 AM 57.2 °F 51.8 °F 82% 29.99 in 7.0 mi ESE 8.1 mph - 0.02 in   Overcast
8:16 AM 57.2 °F 51.8 °F 82% 29.99 in 7.0 mi East 8.1 mph 17.3 mph 0.02 in   Overcast
8:56 AM 57.2 °F 51.8 °F 82% 29.98 in 7.0 mi ESE 12.7 mph - 0.05 in   Overcast
10:16 AM 57.2 °F 51.8 °F 82% 29.98 in 7.0 mi ESE 10.4 mph 16.1 mph N/A   Overcast
10:36 AM 57.2 °F 51.8 °F 82% 29.98 in 7.0 mi ESE 15.0 mph 20.7 mph N/A   Overcast
10:56 AM 57.2 °F 51.8 °F 82% 29.98 in 7.0 mi SE 8.1 mph 21.9 mph N/A   Overcast
11:55 AM 57.2 °F 51.8 °F 82% 29.98 in 7.0 mi East 5.8 mph 19.6 mph N/A Rain Light Rain
12:55 PM 57.2 °F 51.8 °F 82% 29.97 in 7.0 mi ENE 10.4 mph 21.9 mph N/A Rain Light Rain
1:16 PM 57.2 °F 51.8 °F 82% 29.97 in 7.0 mi East 10.4 mph 21.9 mph N/A   Overcast
1:36 PM 57.2 °F 53.6 °F 88% 29.96 in 7.0 mi SE 9.2 mph 18.4 mph N/A   Overcast
1:56 PM 59.0 °F 51.8 °F 77% 29.96 in 5.0 mi ESE 10.4 mph 25.3 mph N/A   Overcast
2:55 PM 57.2 °F 51.8 °F 82% 29.97 in 5.0 mi ESE 8.1 mph 19.6 mph N/A Rain Light Rain
3:56 PM 59.0 °F 51.8 °F 77% 29.96 in 5.0 mi ESE 10.4 mph 17.3 mph N/A   Overcast
4:16 PM 59.0 °F 53.6 °F 82% 29.96 in 5.0 mi SE 12.7 mph 18.4 mph N/A   Overcast
4:56 PM 59.0 °F 53.6 °F 82% 29.95 in 7.0 mi SE 8.1 mph 20.7 mph 0.13 in   Overcast
5:16 PM 59.0 °F 51.8 °F 77% 29.95 in 7.0 mi ESE 11.5 mph 25.3 mph 0.05 in   Overcast
5:36 PM 59.0 °F 53.6 °F 82% 29.95 in 7.0 mi ESE 6.9 mph - 0.09 in   Overcast
5:55 PM 59.0 °F 51.8 °F 77% 29.94 in 7.0 mi ESE 12.7 mph 20.7 mph N/A Rain Rain
6:16 PM 59.0 °F 51.8 °F 77% 29.94 in 7.0 mi ESE 9.2 mph 19.6 mph N/A   Overcast
6:55 PM 59.0 °F 53.6 °F 82% 29.93 in 5.0 mi East 10.4 mph 17.3 mph N/A Rain Light Rain
7:36 PM 59.0 °F 53.6 °F 82% 29.93 in 5.0 mi ESE 6.9 mph 18.4 mph N/A   Overcast
7:55 PM 59.0 °F 53.6 °F 82% 29.93 in 5.0 mi ESE 4.6 mph 21.9 mph N/A Rain Light Rain
8:36 PM 57.2 °F 53.6 °F 88% 29.93 in 5.0 mi SE 6.9 mph 17.3 mph N/A   Overcast
8:56 PM 59.0 °F 53.6 °F 82% 29.93 in 5.0 mi SE 11.5 mph 18.4 mph N/A   Overcast
9:56 PM 57.2 °F 53.6 °F 88% 29.94 in 7.0 mi SE 6.9 mph - 0.12 in   Overcast
10:16 PM 57.2 °F 53.6 °F 88% 29.94 in 7.0 mi South 3.5 mph - 0.03 in   Overcast
10:36 PM 59.0 °F 53.6 °F 82% 29.93 in 7.0 mi East 6.9 mph 18.4 mph 0.05 in   Overcast
10:56 PM 57.2 °F 53.6 °F 88% 29.93 in 7.0 mi ESE 8.1 mph - 0.07 in   Overcast
11:16 PM 59.0 °F 53.6 °F 82% 29.93 in 10.0 mi SE 4.6 mph - 0.04 in   Overcast